Weather History for HECA - August, 2013

Change the Weather History Date:

Saturday, August 24, 2013

  Actual Average Record
Temperature  
Mean Temperature 83 °F -  
Max Temperature 91 °F 90 °F 102 °F (2001)
Min Temperature 75 °F 71 °F 73 °F (1996)
Cooling Degree Days 18    
Growing Degree Days 33 (Base 50)    
Moisture  
Dew Point 65 °F    
Average Humidity 55    
Maximum Humidity 78    
Minimum Humidity 27    
Precipitation  
Precipitation 0.00 in 0.00 in - ()
Sea Level Pressure  
Sea Level Pressure 29.87 in    
Wind  
Wind Speed 7 mph ()    
Max Wind Speed 15 mph    
Max Gust Speed -    
Visibility 6.1 miles    
Events      
Averages and records for this station are not official NWS values.
T = Trace of Precipitation, MM = Missing Value Source: Averaged Metar Reports

Daily Weather History Graph

Daily Weather History Graph

Search for Another Location

Airport or City:

Trip Planner

Search our weather history database for the weather conditions in past years. The results will help you decide how hot, cold, wet, or windy it might be!

Date:

Astronomy

Aug. 24, 2013 Rise Set
Actual Time 5:26 AM EET 6:26 PM EET
Civil Twilight 5:02 AM EET 6:50 PM EET
Nautical Twilight 4:32 AM EET 7:20 PM EET
Astronomical Twilight 4:02 AM EET 7:50 PM EET
Moon 8:30 PM EET (8/24) 8:44 AM EET (8/24)
Length of Visible Light 13h 48m
Length of Day
12h 59m
Waning Gibbous, 86% of the Moon is Illuminated
Aug 24
Waning Gibbous
Aug 28
Last Quarter
Sep 5
New
Sep 12
First Quarter
Sep 19
Full

Hourly Weather History & Observations

Time (EET) Temp. Heat Index Dew Point Humidity Pressure Visibility Wind Dir Wind Speed Gust Speed Precip Events Conditions
12:00 AM 80.6 °F 82.3 °F 64.4 °F 58% 29.89 in - NNE 6.9 mph - N/A   Clear
12:30 AM 80.6 °F 82.3 °F 64.4 °F 58% 29.89 in - NNE 6.9 mph - N/A   Clear
1:00 AM 78.8 °F - 66.2 °F 65% 29.89 in - NE 9.2 mph - N/A   Clear
1:30 AM 78.8 °F - 66.2 °F 65% 29.89 in - NE 9.2 mph - N/A   Clear
2:00 AM 78 °F - 66 °F 59% 29.88 in 6 mi NE 5.8 mph - -  
2:00 AM 78.8 °F - 66.2 °F 65% 29.89 in - NE 5.8 mph - N/A   Clear
2:30 AM 77.0 °F - 66.2 °F 69% 29.86 in - ENE 6.9 mph - N/A   Clear
3:00 AM 77.0 °F - 66.2 °F 69% 29.86 in - NE 5.8 mph - N/A   Clear
3:30 AM 77.0 °F - 68.0 °F 74% 29.89 in - NNE 8.1 mph - N/A   Clear
4:00 AM 77.0 °F - 68.0 °F 74% 29.89 in - NNE 8.1 mph - N/A   Clear
4:30 AM 75.2 °F - 68.0 °F 78% 29.89 in - NE 6.9 mph - N/A   Clear
5:00 AM 75.2 °F - 68.0 °F 78% 29.89 in - NE 5.8 mph - N/A   Clear
5:30 AM 75.2 °F - 68.0 °F 78% 29.89 in - NE 5.8 mph - N/A   Clear
6:00 AM 75.2 °F - 68.0 °F 78% 29.89 in - NE 5.8 mph - N/A   Clear
6:30 AM 75.2 °F - 68.0 °F 78% 29.89 in - ENE 5.8 mph - N/A   Clear
7:00 AM 77.0 °F - 69.8 °F 78% 29.89 in - NE 3.5 mph - N/A   Clear
7:30 AM 78.8 °F - 69.8 °F 74% 29.89 in - NE 3.5 mph - N/A   Clear
8:00 AM 79 °F - 69 °F 63% 29.91 in 6 mi Calm Calm - -   Scattered Clouds
8:00 AM 78.8 °F - 68.0 °F 69% 29.89 in 6.2 mi Calm Calm - N/A   Partly Cloudy
8:30 AM 80.6 °F 83.2 °F 68.0 °F 65% 29.89 in 6.2 mi Calm Calm - N/A   Partly Cloudy
9:00 AM 80.6 °F 83.2 °F 68.0 °F 65% 29.92 in 6.2 mi NNW 5.8 mph - N/A   Partly Cloudy
9:30 AM 82.4 °F 83.4 °F 62.6 °F 51% 29.89 in 6.2 mi NNW 5.8 mph - N/A   Partly Cloudy
10:00 AM 84.2 °F 85.0 °F 62.6 °F 48% 29.89 in - NW 2.3 mph - N/A   Clear
10:30 AM 86.0 °F 86.1 °F 60.8 °F 43% 29.89 in - WNW 5.8 mph - N/A   Clear
11:00 AM 86.0 °F 85.4 °F 59.0 °F 40% 29.89 in - NW 6.9 mph - N/A   Clear
11:30 AM 87.8 °F 87.1 °F 59.0 °F 38% 29.89 in - NW 6.9 mph - N/A   Clear
12:00 PM 87.8 °F 87.6 °F 60.8 °F 40% 29.89 in - NNW 6.9 mph - N/A   Clear
12:30 PM 89.6 °F 90.1 °F 62.6 °F 40% 29.86 in - NW 11.5 mph - N/A   Clear
1:00 PM 89.6 °F 91.1 °F 64.4 °F 43% 29.86 in - West 11.5 mph - N/A   Clear
1:30 PM 89.6 °F 91.1 °F 64.4 °F 43% 29.86 in - West 9.2 mph - N/A   Clear
2:00 PM 90 °F - 60 °F 27% 29.86 in 6 mi NNW 11.5 mph - -  
2:00 PM 89.6 °F 89.5 °F 60.8 °F 38% 29.86 in - NNW 11.5 mph - N/A   Clear
2:30 PM 91.4 °F 92.1 °F 62.6 °F 38% 29.86 in - NNW 9.2 mph - N/A   Clear
3:00 PM 91.4 °F 92.1 °F 62.6 °F 38% 29.86 in - NNW 15.0 mph - N/A   Clear
3:30 PM 91.4 °F 91.4 °F 60.8 °F 36% 29.83 in - NNW 10.4 mph - N/A   Clear
4:00 PM 91.4 °F 90.7 °F 59.0 °F 34% 29.83 in - NW 13.8 mph - N/A   Clear
4:30 PM 91.4 °F 91.4 °F 60.8 °F 36% 29.83 in - NW 11.5 mph - N/A   Clear
5:00 PM 89.6 °F 89.5 °F 60.8 °F 38% 29.83 in - NNW 11.5 mph - N/A   Clear
5:30 PM 89.6 °F 89.5 °F 60.8 °F 38% 29.83 in - North 9.2 mph - N/A   Clear
6:00 PM 87.8 °F 88.5 °F 62.6 °F 43% 29.83 in - North 11.5 mph - N/A   Clear
6:30 PM 87.8 °F 88.5 °F 62.6 °F 43% 29.83 in - North 11.5 mph - N/A   Clear
7:00 PM 86.0 °F 87.3 °F 64.4 °F 48% 29.83 in - North 11.5 mph - N/A   Clear
7:30 PM 86.0 °F 86.6 °F 62.6 °F 45% 29.86 in - North 12.7 mph - N/A   Clear
8:00 PM 85 °F - 65 °F 41% 29.86 in 6 mi North 12.7 mph - -  
8:00 PM 86.0 °F 87.3 °F 64.4 °F 48% 29.86 in - North 12.7 mph - N/A   Clear
8:30 PM 84.2 °F 87.3 °F 68.0 °F 58% 29.86 in - North 13.8 mph - N/A   Clear
9:00 PM 82.4 °F 85.4 °F 68.0 °F 62% 29.89 in - North 12.7 mph - N/A   Clear
9:30 PM 80.6 °F 83.2 °F 68.0 °F 65% 29.89 in - North 12.7 mph - N/A   Clear
10:00 PM 80.6 °F 82.7 °F 66.2 °F 61% 29.89 in - North 10.4 mph - N/A   Clear
10:30 PM 80.6 °F 82.7 °F 66.2 °F 61% 29.89 in - North 10.4 mph - N/A   Clear
11:00 PM 80.6 °F 82.7 °F 66.2 °F 61% 29.89 in - North 10.4 mph - N/A   Clear
11:30 PM 78.8 °F - 66.2 °F 65% 29.89 in - North 8.1 mph - N/A   Clear